Location: *
(38.9555°S, 57.3572°E)
Time: 01:39:29
(UTC+00:00)

BREEZE-M DEB (TANK) - Pass Details

Date: 15 July 2020
Orbit: 330 x 15366 km, 49.4° (Epoch: 05 August)

Event Time Altitude Azimuth Distance (km) Brightness Sun altitude
Rises 14:04:32 0° 248° (WSW) 6,849 9.2 -11.0°
Reaches altitude 10° 14:11:18 10° 240° (WSW) 4,019 7.8 -12.3°
Maximum altitude 14:18:23 32° 178° (S) 1,235 4.4 -13.6°
Enters shadow 14:20:09 21° 130° (SE) 1,275 4.1 -13.9°
